Regional Weather Roundup
Issued by NWS

Home | Current Version | Previous Version | Graphics & Text | Print | Product List | Glossary On
Versions: 1 2 3 4 5 6 7 8 9 10 11 12 13 14 15 16 17 18 19 20 21 22 23 24 25 26 27 28 29 30 31 32 33 34 35 36 37 38 39 40 41 42 43 44 45 46 47 48 49 50
000
ASUS43 KTOP 150608
RWRKS

WEATHER ROUNDUP FOR KANSAS
NATIONAL WEATHER SERVICE GOODLAND KS
1200 AM CST FRI DEC 15 2017

NOTE:  "FAIR" INDICATES FEW OR NO CLOUDS BELOW 12,000 FEET WITH NO
SIGNIFICANT WEATHER AND/OR OBSTRUCTIONS TO VISIBILITY.

KSZ001>006-013>018-027>032-041>047-150700-
NORTHWEST KANSAS

CITY           SKY/WX    TMP DP  RH WIND       PRES   REMARKS
GOODLAND       CLEAR     21  16  81 W9        30.22F
6HR MIN TEMP:  21; 6HR MAX TEMP:  31;

HAYS           CLEAR     28  23  81 W5        30.24S
HILL CITY      CLEAR     28  23  81 W7        30.23F
6HR MIN TEMP:  28; 6HR MAX TEMP:  37; 6HR PCP: TRACE;

RUSSELL        PTCLDY    30  28  92 NW10      30.21S WCI  21
6HR MIN TEMP:  28; 6HR MAX TEMP:  40;

$$

KSZ061>065-074>080-084>089-150700-
SOUTHWEST KANSAS

CITY           SKY/WX    TMP DP  RH WIND       PRES   REMARKS
DODGE CITY     CLEAR     26  21  81 NW13      30.25S WCI  15
6HR MIN TEMP:  26; 6HR MAX TEMP:  40;

ELKHART        CLEAR     29  26  86 NW9       30.29S
GARDEN CITY    PTCLDY    25  20  81 NW9       30.26S
6HR MIN TEMP:  25; 6HR MAX TEMP:  35;

GREAT BEND     MOCLDY    30  25  81 W8        30.23F
LIBERAL        CLEAR     25  20  81 NW12      30.29S WCI  14
PRATT          CLOUDY    30  24  79 NW8       30.23S
6HR MIN TEMP:  29; 6HR MAX TEMP:  38;

$$

KSZ066>073-081>083-090>101-150700-
SOUTHEAST KANSAS

CITY           SKY/WX    TMP DP  RH WIND       PRES   REMARKS
CHANUTE        CLOUDY    40  30  67 NW5       30.14F
6HR MIN TEMP:  33; 6HR MAX TEMP:  41;

COFFEYVILLE    CLOUDY    40  29  64 W5        30.15S
6HR MIN TEMP:  37; 6HR MAX TEMP:  41;

HUTCHINSON     PTCLDY    34  30  85 NW10      30.20R WCI  26
6HR MIN TEMP:  34; 6HR MAX TEMP:  44;

MEDICINE LODGE   N/A     30  25  81 NW5       30.24R
NEWTON         CLOUDY    38  32  79 NW13      30.19S WCI  30
PARSONS        CLOUDY    36  29  75 CALM      30.15S
6HR MIN TEMP:  30; 6HR MAX TEMP:  39;

WICHITA INTL   MOCLDY    39  33  79 NW12      30.19S WCI  32
6HR MIN TEMP:  38; 6HR MAX TEMP:  48;

WICHITA JABRA  CLOUDY    38  34  85 NW15      30.19S WCI  29
6HR MIN TEMP:  36; 6HR MAX TEMP:  45;

WICHITA MCCONL CLOUDY    39  32  76 N15       30.18S WCI  30
WINFIELD       CLEAR     36  32  85 NW10      30.20R WCI  28
6HR MIN TEMP:  35; 6HR MAX TEMP:  45;

$$

KSZ007>012-019>026-033>040-048>060-102>105-150700-
NORTHEAST KANSAS

CITY           SKY/WX    TMP DP  RH WIND       PRES   REMARKS
CONCORDIA      PTCLDY    34  31  88 NW10      30.18F WCI  26
6HR MIN TEMP:  34; 6HR MAX TEMP:  39;

EMPORIA        CLOUDY    38  31  76 NW14      30.16S WCI  30
6HR MIN TEMP:  38; 6HR MAX TEMP:  43;

LAWRENCE       CLOUDY    36  29  75 W5        30.14S
6HR MIN TEMP:  34; 6HR MAX TEMP:  41;

MANHATTAN      CLOUDY    39  33  79 VRB5      30.17F
6HR MIN TEMP:  38; 6HR MAX TEMP:  44;

MARYSVILLE     CLOUDY    36  34  93 NW9       30.15F
OLATHE IND     CLOUDY    35  27  72 NW7       30.13S
6HR MIN TEMP:  34; 6HR MAX TEMP:  38;

OLATHE EXE     PTCLDY    35  26  69 NW7       30.12S
6HR MIN TEMP:  34; 6HR MAX TEMP:  37;

SALINA         CLOUDY    40  33  76 NW14      30.21S WCI  32
6HR MIN TEMP:  40; 6HR MAX TEMP:  44; 6HR PCP: TRACE;

TOPEKA BILLARD CLOUDY    37  33  85 W8        30.15S
6HR MIN TEMP:  37; 6HR MAX TEMP:  44;

TOPEKA FORBES  MOCLDY    35  31  85 NW9       30.14S
6HR MIN TEMP:  35; 6HR MAX TEMP:  44; 6HR PCP: TRACE;

$$



USA.gov is the U.S. government's official web portal to all federal, state and local government web resources and services.